Regional Weather Roundup
Issued by NWS

Home | Current Version | Previous Version | Text Only | Print | Product List | Glossary Off
Versions: 1 2 3 4 5 6 7 8 9 10 11 12 13 14 15 16 17 18 19 20 21 22 23 24 25 26 27 28 29 30 31 32 33 34 35 36 37 38 39 40 41 42 43 44 45 46 47 48 49 50

000
ASUS43 KLOT 250803
RWRIL

ILLINOIS REGIONAL WEATHER ROUNDUP
NATIONAL WEATHER SERVICE CHICAGO/ROMEOVILLE IL
200 AM CST SAT FEB 25 2017

NOTE: "FAIR" INDICATES FEW OR NO CLOUDS BELOW 12,000 FEET WITH NO
SIGNIFICANT WEATHER AND/OR OBSTRUCTIONS TO VISIBILITY.

* THESE STATIONS ARE NOT UNDER NWS QUALITY CONTROL. THEY ALSO MAY NOT
  REPORT WEATHER SUCH AS PRECIPITATION OR FOG.

ILZ001-002-007-009-015-016-024-250900-
NORTHWEST ILLINOIS

CITY           SKY/WX    TMP DP  RH WIND       PRES   REMARKS
MOLINE         CLOUDY    26  19  74 NW15G26   29.77R WCI  14
STERLING*      FLURRIES  27  23  85 NW14      29.71R WCI  16
$$

ILZ003-004-008-010-011-017-018-250900-
NORTH CENTRAL ILLINOIS

CITY           SKY/WX    TMP DP  RH WIND       PRES   REMARKS
ROCKFORD       LGT SNOW  26  22  84 NW9       29.67S FOG     WCI  17
FREEPORT*      LGT SNOW  22  19  89 NW14G23   29.70R WCI   9
ROCHELLE*      CLOUDY    27  24  89 NW15G22   29.67R WCI  15
DE KALB*       FLURRIES  28  25  90 NW17G24   29.64R WCI  15
PERU*          CLOUDY    29  26  88 NW15      29.69R WCI  18
$$

ILZ005-006-012>014-019>023-250900-
NORTHEAST ILLINOIS

CITY           SKY/WX    TMP DP  RH WIND       PRES   REMARKS
CHICAGO-OHARE  FLURRIES  31  25  78 W9        29.60S WCI  23
CHICAGO-MIDWAY FLURRIES  32  25  75 W16       29.61R WCI  21
AURORA         CLOUDY    30  25  81 W15       29.63S WCI  19
LANSING*       LGT SNOW  32  31  95 W12G17    29.62R WCI  23
JOLIET*        CLOUDY    32  28  85 W6        29.64S WCI  26
WAUKEGAN       CLOUDY    28  24  85 NW7       29.58S WCI  21
DUPAGE AIRPORT CLOUDY    29  24  82 W13       29.61S WCI  19
KANKAKEE*      CLOUDY    33  28  80 W9        29.64S WCI  25
WHEELING       CLOUDY    29  25  85 W9        29.61S WCI  20
MORRIS*        CLOUDY    31  28  86 NW12G17   29.65R WCI  22
NORTHERLY ISL    N/A     32  26  79 NW14        N/A  WCI  22
$$

LMZ740>746-250900-
SOUTHERN LAKE MICHIGAN

STATION/POSITION SKY/WX   TEMP    WIND        PRES    VSBY  WAVE
                          AIR SEA DIR/SP/G                  HT/PER
                          (F)     (DEG/KT/KT) (MB)    (MI)  (FT/S)
HARRISON CRIB              33     280/ 17/ 21   N/A
BURNHAM HARBOR             32     290/  8/ 13   N/A
CALUMET HARBOR             32     240/  7/ 13 1002.1R
BURNS HARBOR               35     260/ 18/ 21 1002.7S
MICHIGAN CITY              34     240/ 22/ 23   N/A
$$

ILZ025>027-034>036-040-047-049-050-058-095>099-250900-
WEST-CENTRAL ILLINOIS

CITY           SKY/WX    TMP DP  RH WIND       PRES   REMARKS
QUINCY         CLOUDY    26  21  81 W23G29    29.87R WCI  11
GALESBURG*     CLOUDY    25  23  92 W18G25    29.78R WCI  11
MACOMB*        CLOUDY    26  23  88 NW25G32   29.83R WCI  11
JACKSONVILLE*  CLOUDY    28  22  78 W26G33    29.83R WCI  13
PITTSFIELD*    CLOUDY    28  20  72 W16G29    29.88R WCI  16
$$

ILZ028>032-037-038-041>044-048-051>054-059>061-250900-
CENTRAL ILLINOIS

CITY           SKY/WX    TMP DP  RH WIND       PRES   REMARKS
PONTIAC        CLOUDY    33  31  93 W20G25    29.67S WCI  21
BLOOMINGTON    FLURRIES  31  30  96 W15G21    29.69R WCI  20
DECATUR        CLOUDY    30  27  88 W21G32    29.74R WCI  17
PEORIA         FLURRIES  28  25  88 W16G26    29.75R WCI  16
LACON*         MIX PCPN  29  26  86 W10G20    29.71R WCI  20
LINCOLN*       CLOUDY    31  29  90 W12G21    29.76R WCI  22
SPRINGFIELD    CLOUDY    30  24  78 W23G35    29.80R WCI  17
TAYLORVILLE    CLOUDY    29  25  84 W28G35    29.80R WCI  14
$$

ILZ033-039-045-046-055>057-062-063-250900-
EAST-CENTRAL ILLINOIS

CITY           SKY/WX    TMP DP  RH WIND       PRES   REMARKS
CHAMPAIGN      CLOUDY    34  30  85 W29G38    29.69S WCI  20
RANTOUL*       CLOUDY    36  33  91 W24       29.67S WCI  24
MATTOON        CLOUDY    33  27  78 W20G31    29.73S WCI  21
$$

ILZ079-100>102-250900-
SOUTHWEST ILLINOIS

CITY           SKY/WX    TMP DP  RH WIND       PRES   REMARKS
ALTON          CLOUDY    31  21  66 W18G31    29.87R WCI  19
BELLEVILLE     CLOUDY    32  20  59 W15G26    29.87R WCI  22
CAHOKIA*       CLOUDY    32  17  54 W22G38    29.90R WCI  19
SPARTA*        CLOUDY    34  20  57 W16G28    29.89R WCI  23
$$

ILZ064>066-069>071-074>076-080>082-084>086-088>090-092>094-250900-
SOUTH-CENTRAL ILLINOIS

CITY           SKY/WX    TMP DP  RH WIND       PRES   REMARKS
CARBONDALE     CLOUDY    35  21  56 W15G32    29.88R WCI  25
CAIRO*         CLEAR     39  27  60 W18G26    29.88R WCI  30
EFFINGHAM*     CLOUDY    34  26  74 SW18G30   29.79S WCI  23
MARION         CLOUDY    37  25  60 W12G21    29.87R WCI  30
MT. VERNON     CLOUDY    35  22  58 W13G21    29.84R WCI  26
CENTRALIA*     CLOUDY    34  24  68 W22G30    29.84R WCI  22
SALEM*         CLOUDY    34  24  64 W24G32    29.83R WCI  22
$$

ILZ067-068-072-073-078-083-087-091-250900-
SOUTHEAST ILLINOIS

CITY           SKY/WX    TMP DP  RH WIND       PRES   REMARKS
LAWRENCEVILLE  CLOUDY    37  28  70 W20G29    29.77R WCI  27
FLORA*         CLOUDY    36  24  61 W24G36    29.81R WCI  24
FAIRFIELD*     CLOUDY    35  25  66 W12G17    29.81R WCI  27
HARRISBURG*    CLOUDY    38  28  67 W18G28    29.84R WCI  28
ROBINSON*      CLOUDY    35  26  71 W18G32    29.77R WCI  24
CARMI*         CLOUDY    37  28  67 W25G39    29.81R WCI  26
$$

ABBREVIATIONS USED IN REMARKS
   TC - TEMPERATURE IN CELSIUS
  WCI - WIND CHILL INDEX
   HX - HEAT INDEX
  VSB - VISIBILITY
$$





USA.gov is the U.S. government's official web portal to all federal, state and local government web resources and services.